Paso Robles, CA

4:20 AM PST on February 23, 2017 (GMT -0800)
Paso Robles Municipal

Weather History for KPRB - September, 2013

Change the Weather History Date:

Saturday, September 14, 2013

  Actual Average Record
Temperature  
Mean Temperature 75 °F 70 °F  
Max Temperature 96 °F 89 °F 108 °F (1971)
Min Temperature 54 °F 51 °F 37 °F (1970)
Degree Days  
Heating Degree Days 0 1  
Month to date heating degree days 0 2  
Since 1 July heating degree days 0 10  
Cooling Degree Days 10 6  
Month to date cooling degree days 152 91  
Year to date cooling degree days 1126 824  
Growing Degree Days 24 (Base 50)    
Moisture  
Dew Point 48 °F    
Average Humidity 52    
Maximum Humidity 93    
Minimum Humidity 10    
Precipitation  
Precipitation 0.00 in 0.01 in 0.05 in (2015)
Month to date precipitation 0.00 0.04  
Year to date precipitation 1.46 8.94  
Since 1 July precipitation T  
Sea Level Pressure  
Sea Level Pressure 29.74 in    
Wind  
Wind Speed 9 mph (NW)    
Max Wind Speed 22 mph    
Max Gust Speed 25 mph    
Visibility 10 miles    
Events      
T = Trace of Precipitation, MM = Missing Value Source: NWS Daily Summary

Daily Weather History Graph

Daily Weather History Graph

Search for Another Location

Airport or City:

Trip Planner

Search our weather history database for the weather conditions in past years. The results will help you decide how hot, cold, wet, or windy it might be!

Date:

Astronomy

Sep. 14, 2013 Rise Set
Actual Time 6:44 AM PDT 7:10 PM PDT
Civil Twilight 6:19 AM PDT 7:36 PM PDT
Nautical Twilight 5:48 AM PDT 8:06 PM PDT
Astronomical Twilight 5:18 AM PDT 8:36 PM PDT
Moon 3:48 PM PDT (9/14) 1:30 AM PDT (9/14)
Length of Visible Light 13h 17m
Length of Day
12h 25m
Waxing Gibbous, 73% of the Moon is Illuminated
Sep 14
Waxing Gibbous
Sep 19
Full
Sep 26
Last Quarter
Oct 4
New
Oct 11
First Quarter

Hourly Weather History & Observations

Time (PDT) Temp. Dew Point Humidity Pressure Visibility Wind Dir Wind Speed Gust Speed Precip Events Conditions
12:53 AM 63.0 °F 51.1 °F 65% 29.76 in 10.0 mi NW 5.8 mph - N/A   Clear
1:53 AM 61.0 °F 52.0 °F 72% 29.76 in 10.0 mi NW 5.8 mph - N/A   Clear
2:53 AM 59.0 °F 51.1 °F 75% 29.75 in 10.0 mi NW 5.8 mph - N/A   Clear
3:53 AM 57.0 °F 51.1 °F 81% 29.75 in 10.0 mi WNW 3.5 mph - N/A   Clear
4:53 AM 55.9 °F 51.1 °F 84% 29.76 in 10.0 mi NNW 3.5 mph - N/A   Clear
5:53 AM 55.0 °F 51.1 °F 86% 29.77 in 10.0 mi WNW 3.5 mph - N/A   Clear
6:46 AM 53.6 °F 50.0 °F 88% 29.80 in 9.0 mi Calm Calm - N/A   Partly Cloudy
6:53 AM 54.0 °F 51.1 °F 90% 29.79 in 8.0 mi NW 5.8 mph - N/A   Mostly Cloudy
7:53 AM 55.0 °F 52.0 °F 89% 29.80 in 7.0 mi NW 4.6 mph - N/A   Overcast
8:22 AM 55.4 °F 51.8 °F 88% 29.81 in 9.0 mi Calm Calm - N/A   Scattered Clouds
8:53 AM 59.0 °F 53.1 °F 81% 29.80 in 10.0 mi Calm Calm - N/A   Clear
9:53 AM 64.9 °F 52.0 °F 63% 29.79 in 10.0 mi Calm Calm - N/A   Clear
10:53 AM 73.0 °F 50.0 °F 44% 29.78 in 10.0 mi NNW 6.9 mph - N/A   Clear
11:53 AM 81.0 °F 44.1 °F 27% 29.75 in 10.0 mi NNW 9.2 mph - N/A   Clear
12:53 PM 87.1 °F 41.0 °F 20% 29.73 in 10.0 mi NW 10.4 mph - N/A   Clear
1:53 PM 91.9 °F 35.1 °F 13% 29.70 in 10.0 mi NNW 9.2 mph - N/A   Clear
2:53 PM 95.0 °F 30.9 °F 10% 29.68 in 10.0 mi NNW 11.5 mph - N/A   Clear
3:53 PM 96.1 °F 34.0 °F 11% 29.65 in 10.0 mi NNW 12.7 mph - N/A   Clear
4:53 PM 93.0 °F 39.9 °F 16% 29.65 in 10.0 mi NNW 15.0 mph - N/A   Clear
5:53 PM 88.0 °F 45.0 °F 22% 29.66 in 10.0 mi WNW 16.1 mph - N/A   Clear
6:53 PM 80.1 °F 46.9 °F 31% 29.67 in 10.0 mi NW 19.6 mph - N/A   Clear
7:53 PM 73.9 °F 50.0 °F 43% 29.69 in 10.0 mi WNW 16.1 mph 25.3 mph N/A   Clear
8:53 PM 69.1 °F 52.0 °F 54% 29.72 in 10.0 mi NW 16.1 mph 23.0 mph N/A   Clear
9:53 PM 66.0 °F 53.1 °F 63% 29.74 in 10.0 mi NW 18.4 mph - N/A   Clear
10:53 PM 64.0 °F 52.0 °F 65% 29.75 in 10.0 mi NW 9.2 mph - N/A   Clear
11:53 PM 62.1 °F 52.0 °F 70% 29.75 in 10.0 mi North - - N/A   Clear